Weather History for KDUJ - October, 2011

Change the Weather History Date:

Thursday, October 27, 2011

  Actual Average Record
Temperature  
Mean Temperature 42 °F 46 °F  
Max Temperature 54 °F 55 °F 76 °F (1963)
Min Temperature 30 °F 37 °F 22 °F (1976)
Degree Days  
Heating Degree Days 23 19  
Month to date heating degree days 230 416  
Since 1 July heating degree days 230 662  
Cooling Degree Days 0 0  
Month to date cooling degree days 0 0  
Year to date cooling degree days 0 360  
Moisture  
Dew Point 41 °F    
Average Humidity 89    
Maximum Humidity 93    
Minimum Humidity 85    
Precipitation  
Precipitation 0.44 in 0.11 in 1.51 in (1981)
Month to date precipitation 2.38 2.72  
Sea Level Pressure  
Sea Level Pressure 29.77 in    
Wind  
Wind Speed 8 mph (NNW)    
Max Wind Speed 17 mph    
Max Gust Speed 21 mph    
Visibility 7 miles    
Events Rain , Snow    
T = Trace of Precipitation, MM = Missing Value Source: NWS Daily Summary

Daily Weather History Graph

Daily Weather History Graph

Search for Another Location

Airport or City:

Trip Planner

Search our weather history database for the weather conditions in past years. The results will help you decide how hot, cold, wet, or windy it might be!

Date:

Astronomy

Oct. 27, 2011 Rise Set
Actual Time 7:40 AM EDT 6:17 PM EDT
Civil Twilight 7:12 AM EDT 6:46 PM EDT
Nautical Twilight 6:39 AM EDT 7:18 PM EDT
Astronomical Twilight 6:07 AM EDT 7:50 PM EDT
Moon 8:42 AM EDT (10/27) 6:44 PM EDT (10/27)
Length of Visible Light 11h 33m
Length of Day
10h 37m
New Moon, 1% of the Moon is Illuminated
Oct 27
New Moon
Nov 2
First Quarter
Nov 10
Full
Nov 18
Last Quarter
Nov 25
New

Hourly Weather History & Observations

Time (EDT) Temp. Windchill Dew Point Humidity Pressure Visibility Wind Dir Wind Speed Gust Speed Precip Events Conditions
12:56 AM 54.0 °F - 52.0 °F 93% 29.69 in 2.0 mi West 8.1 mph - 0.10 in Rain Heavy Rain
1:03 AM 53.6 °F - 51.8 °F 94% 29.70 in 1.8 mi WSW 6.9 mph - 0.04 in Rain Rain
1:06 AM 53.6 °F - 51.8 °F 94% 29.69 in 2.5 mi WSW 5.8 mph - 0.05 in Rain Rain
1:14 AM 53.6 °F - 51.8 °F 94% 29.69 in 4.0 mi WSW 6.9 mph - 0.07 in Rain Light Rain
1:29 AM 53.6 °F - 51.8 °F 94% 29.70 in 3.0 mi WNW 6.9 mph - 0.07 in Rain Light Rain
1:39 AM 53.6 °F - 51.8 °F 94% 29.70 in 3.0 mi WNW 8.1 mph - 0.08 in Rain Light Rain
1:46 AM 53.6 °F - 51.8 °F 94% 29.70 in 2.0 mi NW 9.2 mph - 0.12 in Rain Rain
1:56 AM 53.6 °F - 51.8 °F 94% 29.70 in 2.5 mi NW 4.6 mph - N/A Rain Rain
2:03 AM 53.6 °F - 51.8 °F 94% 29.69 in 5.0 mi NNW 6.9 mph - 0.00 in Rain Light Rain
2:39 AM 53.6 °F - 51.8 °F 94% 29.69 in 9.0 mi NNW 5.8 mph - 0.02 in Rain Light Rain
2:56 AM 52.0 °F - 50.0 °F 93% 29.69 in 10.0 mi North 6.9 mph - 0.02 in   Overcast
3:11 AM 51.8 °F - 48.2 °F 88% 29.69 in 10.0 mi NNW 9.2 mph - 0.00 in Rain Light Rain
3:36 AM 50.0 °F - 48.2 °F 94% 29.69 in 10.0 mi NNW 6.9 mph - 0.00 in   Overcast
3:56 AM 50.0 °F - 48.0 °F 93% 29.69 in 5.0 mi NNW 6.9 mph - 0.01 in Rain Light Rain
4:56 AM 48.9 °F - 46.9 °F 93% 29.68 in 10.0 mi North 6.9 mph - 0.01 in   Overcast
5:41 AM 48.2 °F - 46.4 °F 93% 29.69 in 10.0 mi NNW 4.6 mph - N/A   Overcast
5:56 AM 48.9 °F - 46.9 °F 93% 29.69 in 10.0 mi North 3.5 mph - 0.00 in Rain Light Rain
6:38 AM 48.2 °F - 46.4 °F 93% 29.71 in 10.0 mi NW 5.8 mph - 0.01 in   Overcast
6:46 AM 48.2 °F - 46.4 °F 93% 29.70 in 10.0 mi NNW 5.8 mph - 0.01 in   Overcast
6:56 AM 48.0 °F - 46.9 °F 96% 29.70 in 10.0 mi NNW 4.6 mph - 0.01 in Rain Light Rain
7:56 AM 46.9 °F - 46.0 °F 97% 29.70 in 10.0 mi NNW 5.8 mph - 0.01 in Rain Light Rain
8:53 AM 44.6 °F 38.8 °F 42.8 °F 93% 29.70 in 10.0 mi North 11.5 mph - 0.00 in Rain Light Rain
8:56 AM 45.0 °F 39.3 °F 42.1 °F 90% 29.71 in 10.0 mi NNE 11.5 mph - 0.00 in Rain Light Rain
9:56 AM 42.8 °F 37.5 °F 41.0 °F 93% 29.71 in 10.0 mi NNE 9.2 mph - N/A   Overcast
10:47 AM 42.8 °F 38.6 °F 39.2 °F 87% 29.70 in 2.5 mi NE 6.9 mph - 0.01 in Rain Light Rain
10:56 AM 42.8 °F 38.0 °F 41.0 °F 93% 29.70 in 2.5 mi North 8.1 mph - N/A Rain Light Rain
11:06 AM 42.8 °F 38.6 °F 39.2 °F 87% 29.71 in 2.5 mi North 6.9 mph - 0.01 in Rain Light Rain
11:13 AM 42.8 °F 38.0 °F 39.2 °F 87% 29.71 in 3.0 mi North 8.1 mph - 0.02 in Rain Light Rain
11:39 AM 42.8 °F 39.3 °F 39.2 °F 87% 29.70 in 10.0 mi North 5.8 mph - 0.04 in Rain Light Rain
11:56 AM 42.8 °F 37.0 °F 39.2 °F 87% 29.69 in 8.0 mi North 10.4 mph - N/A Rain Light Rain
12:48 PM 41.0 °F 36.4 °F 39.2 °F 93% 29.69 in 6.0 mi North 6.9 mph - 0.04 in Rain Light Rain
12:52 PM 41.0 °F 35.8 °F 39.2 °F 93% 29.69 in 8.0 mi North 8.1 mph - 0.04 in Rain Light Rain
12:56 PM 41.0 °F 35.8 °F 39.2 °F 93% 29.70 in 7.0 mi NNW 8.1 mph - N/A Rain Light Rain
1:56 PM 37.9 °F 29.6 °F 36.0 °F 93% 29.72 in 5.0 mi North 13.8 mph - 0.05 in Rain Light Rain
2:36 PM 37.4 °F 28.5 °F 33.8 °F 87% 29.72 in 8.0 mi North 15.0 mph - 0.04 in Rain Light Rain
2:56 PM 36.0 °F 28.0 °F 34.0 °F 93% 29.75 in 7.0 mi North 11.5 mph 19.6 mph 0.05 in Snow Light Snow
3:15 PM 35.6 °F 27.5 °F 33.8 °F 93% 29.73 in 9.0 mi North 11.5 mph - 0.00 in Snow Light Snow
3:56 PM 36.0 °F 28.5 °F 34.0 °F 93% 29.80 in 9.0 mi North 10.4 mph - 0.01 in   Overcast
4:12 PM 35.6 °F 28.0 °F 33.8 °F 93% 29.79 in 4.0 mi North 10.4 mph - 0.01 in Snow Light Snow
4:37 PM 35.6 °F 29.2 °F 33.8 °F 93% 29.80 in 5.0 mi NNW 8.1 mph - 0.01 in Snow Light Snow
4:56 PM 35.1 °F 27.9 °F 33.1 °F 92% 29.85 in 4.0 mi NNW 9.2 mph - 0.02 in Snow Light Snow
5:56 PM 35.1 °F 28.6 °F 33.1 °F 92% 29.90 in 9.0 mi NNW 8.1 mph - 0.01 in Snow Light Snow
6:27 PM 33.8 °F 27.7 °F 32.0 °F 93% 29.89 in 9.0 mi NNW 6.9 mph - 0.00 in   Overcast
6:37 PM 33.8 °F 27.7 °F 33.8 °F 100% 29.90 in 10.0 mi NW 6.9 mph - 0.00 in   Overcast
6:39 PM 33.8 °F 27.7 °F 33.8 °F 100% 29.90 in 10.0 mi NW 6.9 mph - 0.00 in   Overcast
6:56 PM 34.0 °F 26.6 °F 33.1 °F 96% 29.94 in 10.0 mi NNW 9.2 mph - 0.00 in   Overcast
7:56 PM 33.1 °F 25.5 °F 30.9 °F 92% 29.99 in 9.0 mi NW 9.2 mph - N/A   Overcast
8:56 PM 33.1 °F 25.5 °F 30.9 °F 92% 30.03 in 10.0 mi NNW 9.2 mph - 0.00 in   Overcast
9:29 PM 33.8 °F 27.7 °F 30.2 °F 87% 30.01 in 10.0 mi NNW 6.9 mph - N/A   Mostly Cloudy
9:56 PM 32.0 °F 26.4 °F 28.9 °F 88% 30.06 in 10.0 mi NNW 5.8 mph - N/A   Scattered Clouds
10:56 PM 30.9 °F 26.2 °F 28.9 °F 92% 30.08 in 10.0 mi WNW 4.6 mph - N/A   Clear
11:56 PM 30.9 °F 25.2 °F 28.0 °F 89% 30.09 in 10.0 mi North 5.8 mph - N/A   Clear